Location: Seattle
(47.6064°N, 122.3308°W)
Time: 17:53:36
(UTC-07:00)

Tiros 1 - Pass Details

Date: 02 August 2021
Orbit: 630 x 663 km, 48.4° (Epoch: 18 September)

Event Time Altitude Azimuth Distance (km) Brightness Sun altitude
Rises 21:17:55 0° 271° (W) 2,980 11.6 -6.1°
Reaches altitude 10° 21:20:17 10° 272° (W) 2,064 10.8 -6.4°
Maximum altitude 21:25:03 80° 360° (N) 664 7.3 -7.1°
Drops below altitude 10° 21:29:46 10° 88° (E) 2,042 9.3 -7.7°
Enters shadow 21:31:09 - 89° (E) 2,578 9.8 -7.9°
